IK0EHZ-3 Weather Reports


Display with metric or nautical units.
time (UTC)temp
F
wind
direction
speed
MPH
gust
MPH
rain 1hr
in
rain 24hr
in
rain mn
in
humidity
%
barometer
mb
20260504100440 71 298 2.0 6.0 0.00 0.00 0.00 57 1018.8
20260504081431 68 119 1.0 3.0 0.00 0.00 0.00 64 1019.1
20260504080931 68 225 1.0 4.0 0.00 0.00 0.00 65 1019.1
20260504080429 68 122 1.0 4.0 0.00 0.00 0.00 66 1019.0
20260504070204 61 29 0.0 1.0 0.00 0.00 0.00 95 1018.7
20260504050406 52 38 0.0 1.0 0.00 0.00 0.00 96 1018.1
20260504045907 50 38 1.0 2.0 0.00 0.00 0.00 96 1018.1
20260504045403 49 38 2.0 2.0 0.00 0.00 0.00 95 1018.1
20260504044903 49 39 2.0 2.0 0.00 0.00 0.00 95 1018.0
20260504044404 49 63 1.0 2.0 0.00 0.00 0.00 95 1018.0
20260504044141 48 69 0.0 2.0 0.00 0.00 0.00 95 1018.0
20260504043640 48 135 0.0 1.0 0.00 0.00 0.00 95 1018.0
20260504042902 48 135 1.0 1.0 0.00 0.00 0.00 95 1017.9
20260504042404 48 138 0.0 1.0 0.00 0.00 0.00 94 1018.0
20260504041902 48 138 0.0 1.0 0.00 0.00 0.00 95 1017.9
20260504041403 48 139 0.0 1.0 0.00 0.00 0.00 95 1017.9
20260504040904 48 139 0.0 1.0 0.00 0.00 0.00 94 1017.9
20260504040402 47 139 0.0 0.0 0.00 0.00 0.00 93 1017.8
20260504035902 48 139 0.0 0.0 0.00 0.00 0.00 93 1017.8
20260504035402 48 139 0.0 0.0 0.00 0.00 0.00 93 1017.7
20260504034902 48 139 0.0 0.0 0.00 0.00 0.00 93 1017.8
20260504034640 49 139 0.0 0.0 0.00 0.00 0.00 94 1017.7
20260504033902 49 139 0.0 0.0 0.00 0.00 0.00 95 1017.7
20260504033641 48 139 0.0 0.0 0.00 0.00 0.00 95 1017.8
20260504032905 48 139 0.0 0.0 0.00 0.00 0.00 94 1017.7
20260504032407 47 139 0.0 3.0 0.00 0.00 0.00 94 1017.7
20260504031902 47 139 0.0 3.0 0.00 0.00 0.00 93 1017.7
20260504031402 47 163 0.0 0.0 0.00 0.00 0.00 93 1017.7
20260504030903 47 163 0.0 0.0 0.00 0.00 0.00 93 1017.6
20260504030402 47 163 0.0 0.0 0.00 0.00 0.00 94 1017.7
20260504025902 47 163 0.0 0.0 0.00 0.00 0.00 93 1017.7
20260504025403 48 163 0.0 0.0 0.00 0.00 0.00 93 1017.7
20260504024902 48 163 0.0 0.0 0.00 0.00 0.00 93 1017.7
20260504024401 48 163 0.0 0.0 0.00 0.00 0.00 93 1017.7
20260504023859 48 163 0.0 0.0 0.00 0.00 0.00 93 1017.7
20260504023358 49 163 0.0 0.0 0.00 0.00 0.00 94 1017.8
20260504022858 48 163 0.0 0.0 0.00 0.00 0.00 93 1017.8
20260504022356 48 163 0.0 0.0 0.00 0.00 0.00 93 1017.8
20260504021856 48 163 0.0 0.0 0.00 0.00 0.00 93 1017.8
20260504021356 49 163 0.0 0.0 0.00 0.00 0.00 93 1017.8
20260504020856 49 163 0.0 0.0 0.00 0.00 0.00 93 1017.7
20260504020356 49 162 0.0 0.0 0.00 0.00 0.00 93 1017.7
20260504020137 49 162 0.0 0.0 0.00 0.00 0.00 93 1017.7
20260504015858 48 162 0.0 0.0 0.00 0.00 0.00 93 1017.8
20260504014856 49 162 0.0 0.0 0.00 0.00 0.00 92 1017.7
20260504014357 49 162 0.0 0.0 0.00 0.00 0.00 93 1017.8
20260504013858 49 162 0.0 0.0 0.00 0.00 0.00 93 1017.6
20260504013356 49 162 0.0 0.0 0.00 0.00 0.00 93 1017.7
20260504012856 49 162 0.0 0.0 0.00 0.00 0.00 93 1017.7
20260504012356 49 162 0.0 0.0 0.00 0.00 0.00 93 1017.7
20260504011908 48 162 0.0 0.0 0.00 0.00 0.00 91 1017.7
20260504011858 49 162 0.0 0.0 0.00 0.00 0.00 93 1017.7
20260504011128 49 162 0.0 0.0 0.00 0.00 0.00 92 1017.8
20260504010356 50 164 0.0 1.0 0.00 0.00 0.00 93 1017.8
20260504005855 50 164 0.0 1.0 0.00 0.00 0.00 93 1017.8
20260504005354 50 151 0.0 1.0 0.00 0.00 0.00 93 1017.7
20260504004852 50 84 0.0 0.0 0.00 0.00 0.00 93 1017.8
20260504004350 49 84 0.0 0.0 0.00 0.00 0.00 92 1017.7
20260504004124 49 84 0.0 0.0 0.00 0.00 0.00 92 1017.6
20260504003622 49 84 0.0 1.0 0.00 0.00 0.00 92 1017.6
20260504002839 50 84 0.0 1.0 0.00 0.00 0.00 92 1017.6
20260504002333 50 84 0.0 1.0 0.00 0.00 0.00 92 1017.6
20260504001836 50 84 0.0 0.0 0.00 0.00 0.00 91 1017.6
20260504001332 50 84 0.0 1.0 0.00 0.00 0.00 91 1017.6
20260504000832 51 84 0.0 1.0 0.00 0.00 0.00 92 1017.7
20260504000332 50 39 0.0 1.0 0.00 0.00 0.00 92 1017.8
20260504000109 50 39 0.0 2.0 0.00 0.00 0.00 91 1017.9
20260503235332 50 39 0.0 2.0 0.00 0.00 0.00 90 1017.9
20260503235105 51 262 0.0 0.0 0.00 0.00 0.00 91 1017.9
20260503234330 51 259 0.0 0.0 0.00 0.00 0.00 91 1017.9
20260503233830 51 259 0.0 0.0 0.00 0.00 0.00 91 1018.0
20260503233327 51 259 0.0 0.0 0.00 0.00 0.00 90 1018.1
20260503232828 51 259 0.0 0.0 0.00 0.00 0.00 91 1018.0
20260503232328 51 259 0.0 0.0 0.00 0.00 0.00 91 1018.1
20260503232100 52 259 0.0 0.0 0.00 0.00 0.00 91 1018.1
20260503231324 51 259 0.0 0.0 0.00 0.00 0.00 92 1018.2
20260503231106 51 259 0.0 0.0 0.00 0.00 0.00 90 1018.2
20260503230824 51 259 0.0 0.0 0.00 0.00 0.00 91 1018.1
20260503225819 51 259 0.0 0.0 0.00 0.00 0.00 90 1018.3
20260503225550 51 259 0.0 0.0 0.00 0.00 0.00 90 1018.3
20260503224817 52 259 0.0 0.0 0.00 0.00 0.00 89 1018.3
20260503224314 52 259 0.0 0.0 0.00 0.00 0.00 90 1018.4
20260503224047 53 260 0.0 0.0 0.00 0.00 0.00 90 1018.4
20260503223551 53 260 0.0 0.0 0.00 0.00 0.00 90 1018.4
20260503222813 53 259 0.0 0.0 0.00 0.00 0.00 90 1018.4
20260503222310 53 259 0.0 0.0 0.00 0.00 0.00 91 1018.4
20260503222040 53 259 0.0 0.0 0.00 0.00 0.00 89 1018.4
20260503221305 53 259 0.0 0.0 0.00 0.00 0.00 89 1018.4
20260503220806 54 259 0.0 0.0 0.00 0.00 0.00 89 1018.4
20260503220306 54 259 0.0 0.0 0.00 0.00 0.00 90 1018.4
20260503215803 53 259 0.0 0.0 0.00 0.00 0.00 89 1018.4
20260503215321 54 259 0.0 0.0 0.00 0.00 0.00 88 1018.4
20260503215311 54 259 0.0 0.0 0.00 0.00 0.00 88 1018.3
20260503214302 54 259 0.0 0.0 0.00 0.00 0.00 88 1018.3
20260503213802 55 260 0.0 0.0 0.00 0.00 0.00 89 1018.3
20260503213302 55 259 0.0 0.0 0.00 0.00 0.00 89 1018.4
20260503212802 55 259 0.0 0.0 0.00 0.00 0.00 88 1018.3
20260503212315 55 259 0.0 0.0 0.00 0.00 0.00 88 1018.2
20260503212305 55 259 0.0 0.0 0.00 0.00 0.00 88 1018.3
20260503211259 55 260 0.0 0.0 0.00 0.00 0.00 88 1018.2
20260503210757 55 259 0.0 0.0 0.00 0.00 0.00 87 1018.3
20260503210257 55 260 0.0 0.0 0.00 0.00 0.00 86 1018.4
20260503205757 55 259 0.0 0.0 0.00 0.00 0.00 86 1018.3
20260503205256 56 259 0.0 0.0 0.00 0.00 0.00 86 1018.3
20260503205039 56 259 0.0 1.0 0.00 0.00 0.00 87 1018.3
20260503204252 56 259 0.0 1.0 0.00 0.00 0.00 87 1018.2
20260503203746 56 259 0.0 1.0 0.00 0.00 0.00 87 1018.2
20260503203245 56 263 0.0 1.0 0.00 0.00 0.00 87 1018.1
20260503202743 56 300 0.0 0.0 0.00 0.00 0.00 87 1018.1
20260503202240 56 300 0.0 0.0 0.00 0.00 0.00 86 1018.2
20260503201738 56 300 0.0 0.0 0.00 0.00 0.00 86 1018.1
20260503201236 56 300 0.0 0.0 0.00 0.00 0.00 85 1018.1
20260503200734 57 300 0.0 0.0 0.00 0.00 0.00 85 1018.2
20260503200231 57 300 0.0 1.0 0.00 0.00 0.00 85 1018.1
20260503200000 57 300 0.0 1.0 0.00 0.00 0.00 85 1018.2
20260503195231 57 300 0.0 1.0 0.00 0.00 0.00 85 1018.1
20260503194732 57 300 0.0 1.0 0.00 0.00 0.00 86 1018.1
20260503194230 57 304 0.0 0.0 0.00 0.00 0.00 85 1018.1
20260503193730 57 304 0.0 0.0 0.00 0.00 0.00 84 1017.9
20260503193511 57 303 0.0 0.0 0.00 0.00 0.00 84 1017.9
20260503192730 58 304 0.0 0.0 0.00 0.00 0.00 83 1018.0
20260503192508 58 304 0.0 0.0 0.00 0.00 0.00 83 1017.9
20260503191730 58 304 0.0 0.0 0.00 0.00 0.00 83 1017.8
20260503191231 59 304 0.0 0.0 0.00 0.00 0.00 83 1017.9
20260503190730 59 304 0.0 0.0 0.00 0.00 0.00 83 1017.7
20260503190231 59 304 0.0 2.0 0.00 0.00 0.00 82 1017.8
20260503185730 59 304 0.0 2.0 0.00 0.00 0.00 83 1017.7
20260503185230 59 311 1.0 4.0 0.00 0.00 0.00 83 1017.7
20260503184731 59 302 1.0 4.0 0.00 0.00 0.00 83 1017.8
20260503184518 60 302 1.0 3.0 0.00 0.00 0.00 82 1017.8
20260503184232 60 327 1.0 3.0 0.00 0.00 0.00 82 1017.7
20260503183226 60 277 0.0 1.0 0.00 0.00 0.00 81 1017.5
20260503182726 60 273 1.0 5.0 0.00 0.00 0.00 80 1017.5
20260503182224 61 268 1.0 5.0 0.00 0.00 0.00 79 1017.4
20260503181724 61 270 2.0 7.0 0.00 0.00 0.00 79 1017.4
20260503181226 62 262 3.0 7.0 0.00 0.00 0.00 79 1017.5
20260503180722 62 255 3.0 9.0 0.00 0.00 0.00 78 1017.5
20260503180222 62 259 3.0 9.0 0.00 0.00 0.00 78 1017.4
20260503175723 62 281 3.0 6.0 0.00 0.00 0.00 77 1017.4
20260503175458 63 266 3.0 7.0 0.00 0.00 0.00 77 1017.3
20260503175006 63 262 4.0 10.0 0.00 0.00 0.00 76 1017.3
20260503174222 63 267 5.0 10.0 0.00 0.00 0.00 76 1017.2
20260503173723 64 266 5.0 10.0 0.00 0.00 0.00 75 1017.0
20260503173220 64 276 5.0 10.0 0.00 0.00 0.00 75 1017.0
20260503172720 65 261 5.0 10.0 0.00 0.00 0.00 74 1016.8
20260503172216 65 245 4.0 12.0 0.00 0.00 0.00 73 1016.8
20260503171716 65 254 5.0 12.0 0.00 0.00 0.00 74 1016.6
20260503171216 65 281 4.0 10.0 0.00 0.00 0.00 74 1016.6
20260503170715 65 224 3.0 7.0 0.00 0.00 0.00 74 1016.5
20260503170214 65 249 4.0 9.0 0.00 0.00 0.00 74 1016.4
20260503160207 69 224 4.0 8.0 0.00 0.00 0.00 69 1016.6
20260503150704 67 245 6.0 13.0 0.00 0.00 0.00 71 1017.4
20260503150202 67 247 7.0 15.0 0.00 0.00 0.00 71 1017.4
20260503131158 69 266 8.0 16.0 0.00 0.00 0.00 67 1018.5
20260503130659 69 257 8.0 15.0 0.00 0.00 0.00 67 1018.4
20260503130431 69 274 9.0 16.0 0.00 0.00 0.00 67 1018.5
20260503120146 69 229 8.0 15.0 0.00 0.00 0.00 69 1018.5
20260503110641 69 255 7.0 14.0 0.00 0.00 0.00 64 1018.5
20260503110415 69 244 8.0 14.0 0.00 0.00 0.00 64 1018.4